Home > Weather > Cheongju > Past weeks

Flag for South Korea Weather for the Past 2 Weeks in Cheongju, South Korea

Now
23 °F

Sunny.


Feels Like: 23 °F
Forecast: 15 / 42 °F
Wind: 1 mph from Northwest

Location: Chongju Ab

Current Time: Feb 7, 2016 at 10:54:39 AM

Latest Report: Feb 7, 2016 at 10:00 AM


Visibility: 10 mi

Pressure: 30.27 "Hg

Humidity: 68%

Dew point: 14 °F

Location of CheongjuLocation

Historic Weather in Cheongju — Graph

°F

Cheongju Temperature Yesterday

Maximum temperature yesterday: 36 °F (at 1:00 PM)
Minimum temperature yesterday: 14 °F (at 8:00 AM)
Average temperature yesterday: 26 °F

High & Low Weather Summary for the Past Weeks

 TemperatureHumidityPressure
High46 °F (Jan 30, 2:00 PM)93% (Jan 26, 7:00 AM)30.45 "Hg (Jan 26, 7:00 AM)
Low1 °F (Jan 24, 6:00 AM)26% (Feb 4, 5:00 PM)30.15 "Hg (Feb 6, 4:00 AM)
Average24 °F66%30.33 "Hg
* Reported Jan 23 9:00 AM — Feb 7 9:00 AM, Cheongju, Weather by CustomWeather, © 2016

Note: Actual official high and low records may vary slightly from our data, if they occured in-between our weather recording intervals... More about our weather records

Advertising

Cheongju Weather History for the Previous 24 Hours

 ConditionsComfort  
Time TempWeatherWind HumidityBarometerVisibility
9:00 AM
Sun, Feb 7
16 °FSunny.2 mph79%30.27 "Hg10 mi
8:00 AM9 °FSunny.1 mph85%30.27 "Hg10 mi
7:00 AM7 °FClear.1 mph85%30.24 "Hg10 mi
6:00 AM9 °FClear.1 mph85%30.24 "Hg10 mi
5:00 AM7 °FClear.1 mph85%30.27 "Hg10 mi
4:00 AM9 °FClear.3 mph85%30.27 "Hg10 mi
3:00 AM12 °FClear.3 mph79%30.27 "Hg10 mi
2:00 AM10 °FClear.1 mph72%30.27 "Hg10 mi
1:00 AM14 °FClear.1 mph73%30.27 "Hg10 mi
12:00 AM16 °FClear.1 mph73%30.27 "Hg10 mi
11:00 PM
Sat, Feb 6
16 °FClear.2 mph73%30.27 "Hg10 mi
10:00 PM18 °FClear.1 mph62%30.27 "Hg10 mi
9:00 PM25 °FClear.3 mph54%30.27 "Hg10 mi
8:00 PM23 °FClear.3 mph50%30.27 "Hg10 mi
7:00 PM27 °FClear.3 mph46%30.24 "Hg10 mi
6:00 PM30 °FClear.7 mph40%30.24 "Hg10 mi
5:00 PM34 °FSunny.13 mph32%30.21 "Hg10 mi
4:00 PM36 °FPassing clouds.13 mph30%30.18 "HgN/A
3:00 PM36 °FSunny.13 mph30%30.18 "Hg10 mi
2:00 PM36 °FSunny.12 mph35%30.18 "Hg10 mi
1:00 PM36 °FPassing clouds.8 mph30%30.21 "HgN/A
12:00 PM34 °FPassing clouds.9 mph32%30.21 "HgN/A
11:00 AM32 °FPassing clouds.8 mph40%30.21 "HgN/A
10:00 AM30 °FPassing clouds.6 mph51%30.21 "HgN/A
Weather by CustomWeather, © 2016

See weather overviewHow to use our weather pages